Location: Solstice Park, West Seattle
(47.5363°N, 122.3905°W)
Time: 12:52:46
(UTC-07:00)

ISS - Pass Details

Date: 20 May 2021
Orbit: 417 x 422 km, 51.6° (Epoch: 22 June)

Event Time Altitude Azimuth Distance (km) Brightness Sun altitude
Rises 23:14:49 0° 285° (WNW) 2,366 0.7 -17.7°
Reaches altitude 10° 23:17:00 10° 293° (WNW) 1,503 -0.2 -17.9°
Maximum altitude 23:20:13 40° 5° (N) 635 -2.4 -18.2°
Enters shadow 23:23:04 12° 74° (ENE) 1,368 -1.3 -18.4°
